Location: Newark
(37.3333°N, 6.0167°W)
Time: 16:23:03
(UTC+00:00)

LightSail 2 - Pass Details

Date: 14 November 2019
Orbit: 696 x 730 km, 24.0° (Epoch: 06 December)

Event Time Altitude Azimuth Distance (km) Brightness Sun altitude
Exits shadow 04:08:21 14° 148° (SSE) 1,928 7.6 -34.5°
Drops below altitude 10° 04:09:45 10° 134° (SE) 2,211 8.1 -34.2°
Sets 04:12:58 0° 114° (ESE) 3,136 9.3 -33.6°
